When you browse on this site, cookies collect data to enhance your experience and personalize the content and advertising you see.
Visit our Privacy Policy to learn more. By continuing to use the site, you agree to this use of cookies and data.
  • In United Kingdom
  • List of Countries
  • For 7 days
  • Water Temperature
  • Weather Map
  • Weather Widgets
  • user-avatar
    Login

    Hourly Weather Marsa Alam

    Today, 18 September, Wednesday

    Time Temperature Precipitation Wind Pressure Humidity
    00:00 +27°C° 0 mm 2 mps 711 mmHg 36%
    01:00 +27°C° 0 mm 2 mps 711 mmHg 38%
    02:00 +26°C° 0 mm 2 mps 711 mmHg 39%
    03:00 +26°C° 0 mm 2 mps 711 mmHg 41%
    04:00 +26°C° 0 mm 2 mps 711 mmHg 42%
    05:00 +25°C° 0 mm 2 mps 711 mmHg 44%
    06:00 +28°C° 0 mm 3 mps 712 mmHg 39%
    07:00 +30°C° 0 mm 3 mps 713 mmHg 33%
    08:00 +33°C° 0 mm 4 mps 713 mmHg 28%
    09:00 +36°C° 0 mm 4 mps 714 mmHg 23%
    10:00 +39°C° 0 mm 5 mps 714 mmHg 19%
    11:00 +42°C° 0 mm 5 mps 714 mmHg 15%
    12:00 +42°C° 0 mm 5 mps 714 mmHg 15%
    13:00 +43°C° 0 mm 5 mps 713 mmHg 16%
    14:00 +43°C° 0 mm 5 mps 713 mmHg 16%
    15:00 +42°C° 0 mm 5 mps 712 mmHg 19%
    16:00 +40°C° 0 mm 5 mps 712 mmHg 22%
    17:00 +38°C° 0 mm 4 mps 712 mmHg 25%
    18:00 +36°C° 0 mm 4 mps 712 mmHg 29%
    19:00 +33°C° 0 mm 3 mps 712 mmHg 33%
    20:00 +30°C° 0 mm 2 mps 712 mmHg 37%
    21:00 +30°C° 0 mm 2 mps 712 mmHg 35%
    22:00 +29°C° 0 mm 2 mps 712 mmHg 32%
    23:00 +29°C° 0 mm 1 mps 712 mmHg 30%

    Tomorrow, 19 September, Thursday

    Time Temperature Precipitation Wind Pressure Humidity
    00:00 +28°C° 0 mm 1 mps 712 mmHg 30%
    01:00 +28°C° 0 mm 1 mps 712 mmHg 31%
    02:00 +27°C° 0 mm 2 mps 711 mmHg 32%
    03:00 +27°C° 0 mm 1 mps 712 mmHg 32%
    04:00 +27°C° 0 mm 1 mps 712 mmHg 33%
    05:00 +27°C° 0 mm 1 mps 712 mmHg 33%
    06:00 +30°C° 0 mm 2 mps 713 mmHg 27%
    07:00 +34°C° 0 mm 3 mps 713 mmHg 22%
    08:00 +38°C° 0 mm 3 mps 714 mmHg 16%
    09:00 +41°C° 0 mm 4 mps 714 mmHg 14%
    10:00 +43°C° 0 mm 4 mps 714 mmHg 13%
    11:00 +44°C° 0 mm 4 mps 714 mmHg 11%
    12:00 +45°C° 0 mm 5 mps 714 mmHg 13%
    13:00 +45°C° 0 mm 6 mps 713 mmHg 15%
    14:00 +44°C° 0 mm 6 mps 712 mmHg 16%
    15:00 +42°C° 0 mm 5 mps 712 mmHg 18%
    16:00 +40°C° 0 mm 5 mps 712 mmHg 19%
    17:00 +38°C° 0 mm 4 mps 712 mmHg 20%
    18:00 +36°C° 0 mm 3 mps 712 mmHg 23%
    19:00 +34°C° 0 mm 2 mps 712 mmHg 25%
    20:00 +31°C° 0 mm 2 mps 712 mmHg 27%
    21:00 +31°C° 0 mm 2 mps 712 mmHg 26%
    22:00 +30°C° 0 mm 2 mps 712 mmHg 24%
    23:00 +30°C° 0 mm 1 mps 712 mmHg 23%

    Day after tomorrow, 20 September, Friday

    Time Temperature Precipitation Wind Pressure Humidity
    00:00 +29°C° 0 mm 1 mps 712 mmHg 24%
    01:00 +29°C° 0 mm 1 mps 711 mmHg 26%
    02:00 +28°C° 0 mm 1 mps 711 mmHg 27%
    03:00 +28°C° 0 mm 2 mps 711 mmHg 29%
    04:00 +28°C° 0 mm 2 mps 711 mmHg 32%
    05:00 +28°C° 0 mm 3 mps 711 mmHg 34%
    06:00 +32°C° 0 mm 4 mps 712 mmHg 30%
    07:00 +35°C° 0 mm 4 mps 712 mmHg 26%
    08:00 +39°C° 0 mm 5 mps 713 mmHg 22%
    09:00 +40°C° 0 mm 6 mps 713 mmHg 20%
    10:00 +42°C° 0 mm 6 mps 713 mmHg 18%
    11:00 +45°C° 0 mm 7 mps 713 mmHg 16%
    12:00 +45°C° 0 mm 7 mps 713 mmHg 16%
    13:00 +44°C° 0 mm 7 mps 712 mmHg 17%
    14:00 +44°C° 0 mm 7 mps 712 mmHg 18%
    15:00 +42°C° 0 mm 6 mps 711 mmHg 20%
    16:00 +40°C° 0 mm 5 mps 711 mmHg 22%
    17:00 +39°C° 0 mm 5 mps 711 mmHg 24%
    18:00 +35°C° 0 mm 4 mps 711 mmHg 29%
    19:00 +32°C° 0 mm 2 mps 711 mmHg 33%
    20:00 +30°C° 0 mm 1 mps 711 mmHg 37%
    21:00 +30°C° 0 mm 2 mps 711 mmHg 35%
    22:00 +30°C° 0 mm 2 mps 711 mmHg 33%
    23:00 +30°C° 0 mm 2 mps 711 mmHg 30%

    21 September, Saturday

    Time Temperature Precipitation Wind Pressure Humidity
    00:00 +29°C° 0 mm 2 mps 711 mmHg 33%
    01:00 +28°C° 0 mm 2 mps 711 mmHg 36%
    02:00 +27°C° 0 mm 1 mps 710 mmHg 38%
    03:00 +26°C° 0 mm 2 mps 710 mmHg 41%
    04:00 +26°C° 0 mm 2 mps 710 mmHg 44%
    05:00 +26°C° 0 mm 2 mps 710 mmHg 46%
    06:00 +28°C° 0 mm 2 mps 711 mmHg 42%
    07:00 +30°C° 0 mm 2 mps 712 mmHg 37%
    08:00 +33°C° 0 mm 3 mps 712 mmHg 33%
    09:00 +36°C° 0 mm 3 mps 713 mmHg 27%
    10:00 +40°C° 0 mm 4 mps 713 mmHg 22%
    11:00 +42°C° 0 mm 4 mps 713 mmHg 17%
    12:00 +43°C° 0 mm 5 mps 713 mmHg 16%
    13:00 +43°C° 0 mm 5 mps 712 mmHg 16%
    14:00 +45°C° 0 mm 6 mps 712 mmHg 15%
    15:00 +42°C° 0 mm 5 mps 711 mmHg 18%
    16:00 +41°C° 0 mm 5 mps 711 mmHg 20%
    17:00 +38°C° 0 mm 4 mps 711 mmHg 23%
    18:00 +36°C° 0 mm 4 mps 711 mmHg 27%
    19:00 +33°C° 0 mm 3 mps 711 mmHg 32%
    20:00 +30°C° 0 mm 2 mps 711 mmHg 36%
    21:00 +29°C° 0 mm 2 mps 711 mmHg 34%
    22:00 +29°C° 0 mm 3 mps 711 mmHg 33%
    23:00 +28°C° 0 mm 3 mps 711 mmHg 31%

    22 September, Sunday

    Time Temperature Precipitation Wind Pressure Humidity
    00:00 +28°C° 0 mm 3 mps 711 mmHg 29%
    01:00 +28°C° 0 mm 3 mps 710 mmHg 27%
    02:00 +27°C° 0 mm 3 mps 710 mmHg 25%
    03:00 +27°C° 0 mm 3 mps 710 mmHg 26%
    04:00 +26°C° 0 mm 2 mps 710 mmHg 27%
    05:00 +25°C° 0 mm 2 mps 710 mmHg 28%
    06:00 +27°C° 0 mm 2 mps 711 mmHg 28%
    07:00 +29°C° 0 mm 3 mps 712 mmHg 28%
    08:00 +30°C° 0 mm 3 mps 712 mmHg 29%
    09:00 +33°C° 0 mm 3 mps 713 mmHg 26%
    10:00 +35°C° 0 mm 4 mps 713 mmHg 24%
    11:00 +37°C° 0 mm 4 mps 713 mmHg 21%
    12:00 +38°C° 0 mm 4 mps 713 mmHg 20%
    13:00 +40°C° 0 mm 4 mps 712 mmHg 19%
    14:00 +42°C° 0 mm 4 mps 712 mmHg 17%
    15:00 +40°C° 0 mm 4 mps 712 mmHg 21%
    16:00 +38°C° 0 mm 4 mps 711 mmHg 24%
    17:00 +36°C° 0 mm 4 mps 711 mmHg 28%
    18:00 +34°C° 0 mm 3 mps 711 mmHg 32%
    19:00 +30°C° 0 mm 2 mps 711 mmHg 37%
    20:00 +28°C° 0 mm 2 mps 712 mmHg 42%
    21:00 +28°C° 0 mm 2 mps 712 mmHg 40%
    22:00 +28°C° 0 mm 2 mps 712 mmHg 38%
    23:00 +27°C° 0 mm 2 mps 712 mmHg 36%

    23 September, Monday

    Time Temperature Precipitation Wind Pressure Humidity
    00:00 +27°C° 0 mm 2 mps 712 mmHg 33%
    01:00 +27°C° 0 mm 2 mps 711 mmHg 31%
    02:00 +27°C° 0 mm 2 mps 711 mmHg 28%
    03:00 +26°C° 0 mm 2 mps 711 mmHg 28%
    04:00 +26°C° 0 mm 2 mps 711 mmHg 29%
    05:00 +25°C° 0 mm 2 mps 711 mmHg 29%
    06:00 +27°C° 0 mm 2 mps 712 mmHg 28%
    07:00 +29°C° 0 mm 3 mps 713 mmHg 27%
    08:00 +32°C° 0 mm 4 mps 713 mmHg 26%
    09:00 +34°C° 0 mm 4 mps 714 mmHg 23%
    10:00 +36°C° 0 mm 4 mps 714 mmHg 20%
    11:00 +38°C° 0 mm 4 mps 714 mmHg 17%
    12:00 +40°C° 0 mm 4 mps 713 mmHg 18%
    13:00 +40°C° 0 mm 4 mps 713 mmHg 19%
    14:00 +40°C° 0 mm 5 mps 712 mmHg 19%
    15:00 +38°C° 0 mm 4 mps 712 mmHg 21%
    16:00 +37°C° 0 mm 4 mps 712 mmHg 23%
    17:00 +35°C° 0 mm 4 mps 711 mmHg 24%
    18:00 +33°C° 0 mm 3 mps 712 mmHg 30%
    19:00 +30°C° 0 mm 2 mps 712 mmHg 35%
    20:00 +27°C° 0 mm 1 mps 712 mmHg 40%
    21:00 +28°C° 0 mm 2 mps 712 mmHg 38%
    22:00 +28°C° 0 mm 2 mps 712 mmHg 37%
    23:00 +28°C° 0 mm 3 mps 712 mmHg 35%
    Show more